Vorticity
nan nan nan nan nan nan nan nan nan nan nan nan nan nan nan nan nan nan nan nan nan nan nan nan nan nan nan nan nan nan nan nan nan nan nan nan nan nan nan nan nan nan nan nan nan nan nan nan nan nan nan nan nan nan nan nan nan nan nan nan nan nan nan nan nan nan nan nan nan nan nan nan nan nan nan nan nan nan nan nan nan nan nan nan nan nan
nan 8 8 8 9 10 10 9 8 7 7 7 7 7 8 10 11 11 9 8 9 10 10 9 8 7 3 -3 -7 -2 4 7 9 9 6 5 4 4 5 6 7 7 7 7 7 8 8 8 8 7 6 5 5 4 5 5 6 6 7 7 7 8 8 7 7 7 7 7 8 8 7 5 5 5 6 10 16 24 34 41 42 38 30 24 22 nan
nan 9 9 9 9 10 10 9 9 7 8 8 7 7 9 11 11 10 9 8 9 10 10 9 8 7 6 -0 -6 -3 3 6 8 8 6 4 4 4 5 6 7 7 7 7 7 8 8 9 8 8 7 6 5 4 5 5 6 6 7 7 7 8 8 8 8 8 8 9 9 7 5 3 3 4 6 7 9 12 20 31 40 44 41 35 30 nan
nan 7 9 11 10 11 9 8 8 8 8 8 7 9 12 12 10 9 8 8 9 10 10 9 8 8 7 3 -3 -5 0 6 7 7 5 4 4 4 5 6 7 8 8 7 8 8 8 9 9 8 8 6 5 5 5 6 6 7 7 7 8 8 9 9 9 10 10 11 10 9 5 3 3 4 5 6 7 8 11 18 27 37 45 44 40 nan
nan 8 9 10 10 11 10 9 8 8 8 9 10 11 12 11 9 9 9 9 9 10 10 9 8 8 8 4 -2 -5 -1 6 7 6 4 4 4 4 5 6 7 8 8 8 8 8 8 9 9 8 7 6 5 5 5 6 6 7 7 8 8 8 8 9 10 11 11 12 13 12 8 5 3 3 4 5 5 6 7 11 17 26 37 44 46 nan
nan 8 9 10 10 10 9 8 8 9 9 9 10 12 12 10 10 9 8 9 10 10 10 9 8 8 7 3 -1 -1 3 6 6 5 4 3 3 4 5 6 7 8 8 8 8 8 8 8 8 8 7 6 5 5 5 6 6 7 7 8 7 8 8 9 10 11 12 14 15 16 14 9 5 3 3 3 4 4 5 7 10 15 24 35 43 nan
nan 9 10 10 10 10 9 7 7 9 9 9 10 10 11 10 10 9 9 10 10 9 9 9 9 9 7 5 4 6 8 8 7 5 3 3 3 4 4 6 7 8 8 8 8 8 8 8 8 8 7 5 5 5 5 6 6 7 7 7 7 7 7 8 10 11 13 15 17 20 19 14 8 4 2 3 3 4 4 4 6 7 13 22 31 nan
nan 10 9 10 10 10 9 8 7 7 9 9 9 9 10 10 10 10 10 11 10 8 8 9 9 10 9 9 10 12 11 10 9 5 3 4 3 3 3 5 7 7 7 8 8 8 8 8 8 7 6 5 5 5 5 6 7 7 7 7 7 7 7 8 9 10 13 15 18 22 22 17 12 6 4 4 4 4 3 3 4 4 6 11 18 nan
nan 9 9 9 9 9 10 9 8 7 8 9 9 8 8 9 10 10 10 10 9 8 8 8 9 9 11 12 12 11 9 9 8 5 6 6 3 0 2 5 5 5 6 7 8 8 8 7 7 7 6 5 5 5 6 6 6 7 7 7 7 7 7 7 8 10 12 14 17 19 20 17 13 9 7 6 6 6 5 4 3 3 4 6 9 nan
nan 9 9 10 9 8 8 8 8 7 8 9 10 10 8 6 6 7 9 9 9 9 8 7 8 9 11 13 12 9 7 5 3 3 6 6 3 4 7 8 6 2 3 7 8 8 7 6 6 7 6 6 5 6 6 6 6 7 7 7 7 7 7 8 9 9 10 11 13 14 15 14 12 10 9 9 9 8 7 6 5 4 3 3 4 nan
nan 10 10 10 10 9 8 8 8 7 8 9 11 11 8 5 5 4 6 8 9 11 10 8 8 9 11 12 12 10 8 6 5 4 4 4 5 8 11 11 8 5 7 10 9 7 6 5 7 8 8 7 6 6 7 6 5 5 6 7 7 7 8 9 9 9 9 9 9 9 9 9 9 9 10 10 10 10 10 9 8 6 4 3 3 nan
nan 10 10 9 9 9 9 10 10 8 8 8 9 9 8 8 7 6 6 7 8 9 11 12 11 11 11 11 10 9 8 7 7 8 7 7 8 9 11 11 10 10 12 12 9 7 5 6 8 9 9 7 5 5 6 6 4 4 6 7 8 9 9 10 9 8 7 7 7 7 7 7 8 8 10 10 11 11 10 9 9 8 7 5 4 nan
nan 9 9 9 9 9 9 9 10 9 9 8 7 7 7 8 9 9 8 6 7 8 10 10 11 13 14 13 10 7 6 7 7 8 9 10 9 9 10 10 10 11 12 12 9 4 2 6 9 9 9 8 5 4 4 4 4 4 7 8 9 10 11 10 9 8 6 6 6 6 6 7 8 9 10 11 11 11 10 10 9 9 9 8 7 nan
nan 9 8 8 8 9 9 9 9 9 8 7 7 8 9 8 8 8 8 7 8 9 9 9 11 14 16 13 10 6 5 6 7 8 9 10 10 9 8 8 9 11 11 9 7 2 4 10 10 6 5 8 5 3 2 1 2 4 7 9 10 11 11 10 9 7 6 5 5 5 6 7 8 9 10 11 12 12 12 11 10 9 9 10 9 nan
nan 8 8 8 9 9 9 9 8 8 8 7 8 9 9 8 7 7 7 7 9 11 10 10 13 15 15 12 9 6 5 7 8 7 8 11 12 11 9 8 9 10 9 8 7 4 7 11 10 6 3 0 -2 -3 -2 0 0 4 9 10 11 12 11 9 7 6 5 4 5 5 6 7 8 9 10 11 12 13 13 12 11 10 10 10 10 nan
nan 8 7 8 9 9 9 8 8 8 9 9 9 9 8 8 8 8 8 9 10 11 9 11 13 16 15 12 8 4 4 7 8 6 8 12 13 13 10 7 8 9 9 9 9 8 8 8 7 6 -0 -8 -9 -6 0 3 4 7 10 11 12 11 9 7 6 4 4 5 5 6 7 7 8 8 9 10 11 12 13 13 12 12 11 11 11 nan
nan 8 8 8 9 9 9 9 9 9 10 10 10 9 8 8 8 8 9 10 11 11 9 9 10 12 12 10 7 3 3 6 7 7 9 12 13 13 10 7 7 8 9 10 10 8 7 7 7 6 -4 -13 -10 -4 3 5 6 8 10 11 11 10 7 5 4 3 4 5 6 7 8 8 8 8 8 9 10 11 12 13 13 13 12 12 11 nan
nan 8 8 8 9 9 9 10 11 11 10 9 9 9 8 8 8 9 9 10 9 9 8 9 9 8 8 6 4 1 3 5 7 8 10 12 13 14 11 8 8 8 9 9 10 8 7 7 4 0 -12 -15 -6 -1 2 6 7 9 11 11 10 8 5 3 3 3 4 5 7 7 8 8 8 8 8 9 9 9 11 12 12 12 13 13 12 nan
nan 8 8 8 9 9 10 11 10 10 8 8 7 7 8 9 10 10 10 10 9 8 8 8 8 8 8 5 3 3 4 7 9 10 10 12 13 13 11 8 8 8 9 10 10 9 8 6 1 -4 -9 -7 -2 1 3 6 8 9 10 10 8 6 3 2 3 4 5 7 8 8 8 8 8 8 8 8 9 9 9 10 10 11 13 13 13 nan
nan 9 9 10 10 10 11 11 9 8 6 6 7 8 9 10 11 11 10 10 10 9 8 8 8 9 9 7 6 6 6 10 11 12 12 12 13 12 10 7 8 9 10 11 11 9 8 7 4 0 -1 -1 -1 0 4 7 8 9 10 9 6 4 1 1 3 5 7 8 9 9 8 8 8 8 8 8 8 8 9 9 10 10 11 12 13 nan
nan 10 11 11 9 9 9 9 6 4 4 7 10 11 11 11 10 9 9 9 9 8 7 7 7 8 7 6 7 8 9 11 12 13 13 12 11 10 9 7 7 8 10 12 11 9 8 8 8 5 -2 -6 -3 0 4 7 8 9 9 7 4 2 1 2 4 6 9 10 9 9 8 7 7 7 7 8 8 8 9 9 9 9 10 11 11 nan
nan 10 10 8 7 5 6 5 5 5 8 10 10 10 10 9 8 8 9 9 7 6 6 7 8 8 7 8 10 12 12 12 11 11 10 9 8 9 9 7 6 8 10 11 11 10 10 10 8 3 -3 -6 -2 2 5 8 9 9 8 5 3 1 0 3 5 8 9 10 9 9 8 7 7 7 7 7 7 8 9 9 9 9 9 9 10 nan
nan 6 7 7 6 6 7 7 8 10 12 12 10 9 9 8 7 7 9 9 8 9 11 11 10 10 11 11 12 13 13 13 12 10 9 8 8 9 9 7 7 9 9 10 10 10 10 11 10 6 0 -2 2 4 6 9 9 9 6 3 1 0 1 4 6 8 9 9 9 8 8 7 7 6 6 7 7 8 9 9 9 9 9 9 10 nan
nan 7 8 8 7 6 5 6 7 9 11 11 11 11 9 7 6 7 8 9 10 11 12 11 12 13 13 13 13 14 14 14 12 10 9 9 8 9 7 7 8 9 10 10 9 8 9 11 10 10 5 2 4 5 8 10 9 7 4 1 -0 -0 2 5 7 8 8 8 8 8 8 7 7 6 6 6 7 8 9 9 9 9 10 10 12 nan
nan 5 5 3 1 -3 -5 -4 -3 -1 1 6 8 9 8 8 8 9 10 10 11 11 10 11 13 13 13 13 14 14 13 13 10 8 7 8 8 8 8 9 10 10 10 9 8 8 8 8 9 10 9 6 6 8 10 10 8 5 1 -1 -0 1 4 6 7 7 8 8 7 7 7 7 6 6 6 6 7 8 9 9 9 10 11 14 17 nan
nan -4 -6 -7 -7 -8 -7 -6 -5 -5 -3 1 3 5 7 10 11 11 11 12 11 10 11 12 12 12 12 12 12 11 12 11 9 7 7 7 7 9 11 11 10 9 8 8 7 7 6 8 10 12 11 10 10 12 11 10 6 2 -1 -1 0 2 5 6 7 7 7 7 7 7 7 6 7 6 6 7 7 8 8 9 9 11 15 21 25 nan
nan -3 -3 -1 1 3 4 4 4 3 5 3 1 2 7 11 11 11 10 10 10 10 10 10 10 11 12 11 11 10 10 10 10 9 9 8 9 10 11 11 9 8 8 9 8 6 7 11 13 13 13 13 13 14 12 8 5 1 -1 0 2 4 6 7 8 8 7 6 6 6 6 7 7 7 7 7 7 7 8 8 11 15 22 29 32 nan
nan 8 8 8 9 9 9 10 10 10 10 6 4 8 14 15 12 11 10 9 9 9 9 8 9 10 11 10 9 9 10 11 11 12 12 11 10 10 10 9 9 8 10 11 10 9 14 16 15 15 13 12 13 15 13 8 6 4 4 4 5 7 9 9 9 8 7 6 6 5 6 7 7 8 8 8 7 7 7 9 14 23 33 35 31 nan
nan 16 15 14 13 13 15 17 17 15 12 10 11 15 18 16 12 10 9 9 9 9 9 9 9 9 9 9 10 11 12 12 12 11 12 11 10 9 9 9 9 10 12 12 13 14 16 15 14 12 11 11 13 13 12 10 11 11 10 9 11 12 11 10 10 9 8 6 5 5 6 7 7 8 8 8 7 7 6 10 20 32 36 27 19 nan
nan 20 21 21 21 21 22 22 20 18 16 14 15 17 18 15 12 10 9 9 9 9 9 9 10 10 9 10 12 13 14 13 10 8 7 9 9 9 9 9 9 9 12 12 12 12 12 11 10 9 8 9 11 10 9 10 13 15 14 13 15 14 11 11 11 10 9 7 6 5 6 7 8 8 9 8 8 7 6 12 25 35 29 16 12 nan
nan 15 17 18 20 21 21 18 17 18 19 20 21 21 18 13 11 10 10 10 10 9 9 9 9 9 9 9 10 11 11 10 7 5 6 9 9 9 9 9 9 9 10 9 8 8 10 11 9 8 7 9 9 8 7 9 12 14 11 12 14 12 11 13 14 13 11 8 7 6 7 8 8 9 9 8 8 7 7 13 23 30 22 12 11 nan
nan 11 11 12 13 14 14 13 14 15 17 19 20 18 15 11 10 9 10 10 9 9 9 9 9 9 9 8 7 7 7 6 4 5 8 11 11 10 9 9 8 9 8 8 7 8 9 9 8 7 7 9 9 9 8 10 12 10 9 11 12 11 13 17 17 16 12 9 9 9 9 10 10 10 9 9 9 8 8 12 18 23 17 11 10 nan
nan 10 10 10 11 11 11 12 11 11 12 13 13 13 13 12 11 10 9 10 9 9 8 8 9 9 9 9 9 8 7 5 3 5 10 14 12 10 8 8 8 8 8 9 10 10 8 5 5 6 8 10 10 9 10 11 11 11 12 13 13 12 14 16 15 13 10 11 13 13 13 14 14 13 12 12 11 10 8 9 12 14 13 13 10 nan
nan 10 10 11 11 11 11 11 10 10 10 10 10 10 11 12 12 11 10 10 10 10 9 9 9 9 9 10 10 9 8 6 4 5 11 14 11 9 8 9 9 9 9 10 10 11 10 5 4 5 8 10 10 10 11 12 13 15 16 14 12 10 10 10 10 9 9 12 15 14 16 17 16 15 15 13 11 9 6 6 7 9 12 13 9 nan
nan 10 11 10 10 10 10 10 10 10 10 10 11 11 10 10 11 11 11 10 10 9 9 9 9 8 8 8 8 8 7 6 5 6 10 12 11 10 9 9 8 9 10 8 8 10 9 6 5 5 7 9 11 12 12 13 15 16 14 11 8 5 4 4 5 7 10 13 14 14 15 15 14 14 11 7 5 3 3 6 8 10 13 12 11 nan
nan 10 10 10 10 10 9 10 10 11 11 11 11 11 11 10 10 10 10 10 10 9 9 8 8 8 7 7 6 6 6 6 6 7 10 11 11 10 9 8 8 8 8 7 8 8 8 8 8 8 9 11 12 13 13 13 13 12 8 6 4 2 2 4 6 8 11 12 13 12 11 11 10 9 4 -0 2 5 9 11 12 13 13 12 12 nan
nan 10 10 10 10 10 10 11 11 11 11 11 11 11 11 10 9 9 9 9 9 9 9 10 10 10 7 5 5 5 6 5 7 8 10 11 10 10 8 8 7 7 8 8 9 10 11 9 10 12 15 14 11 8 8 9 9 8 5 3 3 5 7 9 11 12 13 12 11 8 7 8 7 8 4 6 13 17 19 20 20 17 15 16 14 nan
nan 10 10 10 10 10 11 11 10 10 11 10 10 11 11 10 9 8 9 10 10 9 9 11 12 13 12 7 6 5 5 6 7 9 10 10 9 8 7 7 8 9 11 11 11 12 11 9 10 13 15 12 8 5 5 8 8 7 6 6 8 10 13 14 15 15 14 10 7 5 7 9 10 11 11 16 20 21 21 21 17 15 17 20 18 nan
nan 10 10 9 9 10 10 9 10 10 11 10 9 9 9 10 10 10 10 11 12 13 12 11 11 13 15 13 11 9 8 10 11 11 12 11 10 9 8 7 8 11 12 13 12 11 9 9 9 9 8 9 9 10 11 9 8 7 7 11 14 16 16 16 15 12 9 6 5 8 12 12 12 12 12 13 13 12 13 13 12 13 17 19 17 nan
nan 9 9 10 10 10 9 9 10 10 10 10 10 10 10 11 12 13 13 13 14 15 15 12 11 11 13 14 14 14 12 12 12 11 12 10 8 7 8 7 8 10 11 12 11 11 9 8 7 6 6 7 7 8 8 8 7 6 7 12 13 13 13 10 8 7 6 6 8 12 12 9 8 8 8 8 9 9 10 9 8 8 11 12 13 nan
nan 7 8 10 11 11 11 11 10 9 9 10 11 12 12 13 13 13 13 13 13 13 13 13 11 11 12 13 13 13 12 10 10 10 8 7 6 6 7 8 9 10 11 10 10 10 9 8 8 8 8 7 7 8 8 8 8 9 11 10 8 6 7 7 8 10 10 10 11 10 6 6 8 10 9 9 10 10 8 6 5 6 9 10 9 nan
nan 9 10 11 11 11 10 9 9 9 11 11 11 12 11 11 11 9 8 10 10 10 9 9 9 8 9 10 10 11 12 11 11 10 8 10 10 8 6 7 8 9 10 10 10 11 11 9 8 8 8 9 10 10 10 12 13 13 12 8 7 9 13 15 15 14 12 10 9 8 8 10 11 10 9 11 11 10 9 7 4 4 8 10 10 nan
nan 12 12 11 10 9 9 10 12 13 13 11 10 10 10 9 8 7 8 8 7 7 9 9 8 7 6 7 9 11 13 14 13 12 13 13 12 11 9 8 7 7 9 11 12 13 13 11 9 9 10 11 10 9 10 12 13 13 11 7 8 11 14 14 12 9 8 9 9 10 11 11 9 8 10 10 10 10 11 10 11 13 12 11 10 nan
nan 11 11 11 10 10 11 11 12 11 10 8 8 9 11 10 9 9 10 9 9 9 10 10 9 9 8 8 8 9 11 13 13 14 15 13 12 10 12 13 13 13 11 9 9 10 10 11 11 11 13 13 12 11 12 10 9 8 7 7 8 8 5 4 4 6 8 9 10 10 11 10 10 10 10 10 10 11 12 13 15 15 14 13 12 nan
nan 10 10 10 10 10 9 9 9 9 9 9 10 11 11 11 11 10 9 9 10 10 9 9 10 10 10 8 8 10 11 9 10 12 16 19 20 20 18 17 16 15 12 8 6 5 5 8 10 12 14 13 11 9 8 7 6 6 6 9 11 12 8 5 6 8 9 10 10 9 9 9 10 11 10 10 10 11 9 9 9 9 11 12 11 nan
nan 9 9 10 9 9 9 10 10 10 9 10 10 11 10 10 10 10 9 9 10 10 11 10 9 8 6 7 9 10 9 7 7 9 13 18 23 24 20 15 11 9 8 8 7 6 5 5 7 9 10 10 9 8 6 6 7 9 11 12 13 13 12 11 11 11 9 10 10 10 12 12 12 12 10 10 10 10 10 9 8 8 9 10 10 nan
nan 8 10 9 9 10 11 10 10 10 9 9 9 10 9 10 9 9 10 11 10 10 10 10 9 8 6 7 9 8 6 6 7 9 10 12 14 13 12 11 9 8 7 8 9 9 8 7 6 6 5 6 7 9 9 9 10 10 10 12 12 12 11 11 12 12 11 10 9 10 13 14 13 11 11 10 11 11 11 10 10 9 10 10 10 nan
nan 9 9 9 9 9 10 10 10 9 9 9 9 10 10 8 6 6 9 10 10 10 10 9 8 8 9 9 9 8 7 8 9 10 10 10 10 10 9 10 11 12 12 11 11 12 13 12 9 6 4 5 7 9 10 11 11 11 12 12 12 11 11 10 11 12 13 12 10 10 11 12 12 11 12 10 10 10 10 10 10 10 9 10 11 nan
nan 10 9 9 10 9 9 10 10 9 9 9 9 10 10 10 10 9 9 9 10 11 11 10 9 9 10 10 9 9 9 10 10 10 10 11 10 10 10 11 12 12 12 13 14 15 17 19 18 13 7 5 6 7 10 11 12 12 13 13 13 13 12 12 12 12 13 12 13 13 11 11 12 12 12 11 10 9 10 10 10 10 11 12 13 nan
nan 10 9 9 9 9 10 10 10 9 8 8 7 7 8 11 14 14 11 11 11 11 10 10 10 10 9 9 9 10 10 10 10 9 9 10 10 9 9 9 9 9 9 11 12 13 16 20 24 24 17 7 2 1 8 12 13 14 12 13 13 14 13 12 12 11 10 11 14 16 14 12 13 14 13 14 13 12 10 10 10 10 12 14 15 nan
nan nan nan nan nan nan nan nan nan nan nan nan nan nan nan nan nan nan nan nan nan nan nan nan nan nan nan nan nan nan nan nan nan nan nan nan nan nan nan nan nan nan nan nan nan nan nan nan nan nan nan nan nan nan nan nan nan nan nan nan nan nan nan nan nan nan nan nan nan nan nan nan nan nan nan nan nan nan nan nan nan nan nan nan nan nan
CAPE
nan nan nan nan nan nan nan nan nan nan nan nan nan nan nan nan nan nan nan nan nan nan nan nan nan nan nan nan nan nan nan nan nan nan nan nan nan nan nan nan nan nan nan nan nan nan nan nan nan nan 0 1 0 0 nan nan nan nan 0 2 2 6 13 16 16 20 19 21 24 24 20 16 11 11 8 10 11 11 8 nan nan nan nan 4 4 35
nan nan nan nan nan nan nan nan nan nan nan nan nan nan nan nan nan nan nan nan nan nan nan nan nan nan nan nan nan nan nan nan nan nan nan nan nan nan nan nan nan nan nan nan nan nan nan nan nan nan 0 0 nan nan nan nan nan nan nan nan nan 1 6 12 12 17 19 22 19 19 17 14 14 14 14 13 13 13 12 9 9 1 nan 31 31 72
nan nan nan nan nan nan nan nan nan nan nan nan nan nan nan nan nan nan nan nan nan nan nan nan nan nan nan nan nan nan nan nan nan nan nan nan nan nan nan nan nan nan nan nan nan nan nan nan nan nan 0 0 nan nan nan nan nan nan nan nan nan nan 1 4 4 9 15 18 15 15 11 14 16 16 18 18 15 15 12 11 11 8 8 68 68 116
nan nan nan nan nan nan nan nan nan nan nan nan nan nan nan nan nan nan nan nan nan nan nan nan nan nan nan nan nan nan nan nan nan nan nan nan nan nan nan nan nan nan nan nan nan nan nan nan nan nan 1 0 nan nan nan nan nan nan nan nan nan nan nan 0 0 1 4 8 12 12 12 15 17 17 18 19 19 19 18 16 16 13 12 61 61 161
nan nan nan nan nan nan nan nan nan nan nan nan nan nan nan nan nan nan nan nan nan nan nan nan nan nan nan nan nan nan nan nan nan nan nan nan nan nan nan nan nan nan nan nan nan nan nan nan nan 0 1 0 nan nan nan nan nan nan nan nan nan nan nan nan nan nan 0 3 10 10 12 14 15 15 15 17 21 21 22 21 21 19 19 26 26 96
nan nan nan nan nan nan nan nan nan nan nan nan nan nan nan nan nan nan nan nan nan nan nan nan nan nan nan nan nan nan nan nan nan nan nan nan nan nan nan nan nan nan nan nan nan nan nan nan nan 0 1 0 nan nan nan nan nan nan nan nan nan nan nan nan nan nan 0 0 4 4 10 12 12 12 11 14 19 19 22 23 23 23 25 23 23 36
nan nan nan nan nan nan nan nan nan nan nan nan nan nan nan nan nan nan nan nan nan nan nan nan nan nan nan nan nan nan nan nan nan nan nan nan nan nan nan nan nan nan nan nan nan nan nan nan nan 0 0 nan nan nan nan nan nan nan nan nan nan nan nan nan nan nan 0 0 1 1 5 9 9 9 9 13 16 16 22 24 24 24 26 26 26 23
nan nan nan nan nan nan nan nan nan nan nan nan nan nan nan nan nan nan nan nan nan nan nan nan nan nan nan nan nan nan nan nan nan nan nan nan nan nan nan nan nan nan nan nan nan nan nan nan nan nan nan nan nan nan nan nan nan nan nan nan nan nan nan nan nan 0 3 7 8 8 16 23 26 26 20 16 17 17 20 24 24 25 23 24 24 23
nan nan nan nan nan nan nan nan nan nan nan nan nan nan nan nan nan nan nan nan nan nan nan nan nan nan nan nan nan nan nan nan nan nan nan nan nan nan nan nan nan nan nan nan nan nan nan nan nan nan nan nan nan nan 0 0 0 nan nan nan nan nan nan nan nan 1 6 10 16 16 24 29 30 30 19 15 15 15 20 20 20 22 23 23 23 24
nan nan nan nan nan nan nan nan nan nan nan nan nan nan nan nan nan nan nan nan nan nan nan nan nan nan nan nan nan nan nan nan nan nan nan nan nan nan nan nan nan nan nan nan nan nan nan nan nan nan nan nan nan nan 1 1 1 nan nan nan nan nan nan nan nan 1 3 3 8 8 12 15 18 18 14 12 11 11 13 15 15 14 18 22 22 23
nan nan nan nan nan nan nan nan nan nan nan nan nan nan nan nan nan nan nan nan nan nan nan nan nan nan nan nan nan nan nan nan nan nan nan nan nan nan nan nan nan nan nan nan nan nan nan nan nan nan nan nan nan nan 1 1 1 nan nan nan nan nan nan nan nan 0 0 nan nan nan 0 2 4 4 7 9 8 8 8 8 8 8 10 16 16 20
nan nan nan nan nan nan nan nan nan nan nan nan nan nan nan nan nan nan nan nan nan nan nan nan nan nan nan nan nan nan nan nan nan nan nan nan nan nan nan nan nan nan nan nan nan nan nan nan nan nan nan nan nan nan 0 0 0 nan nan nan nan nan nan 1 1 0 nan nan nan nan nan nan nan nan 2 7 8 8 7 6 6 5 5 9 9 15
nan nan nan nan nan nan nan nan nan nan nan nan nan nan nan nan nan nan nan nan nan nan nan nan nan nan nan nan nan nan nan nan nan nan nan nan nan nan nan nan nan nan nan nan nan nan nan nan nan nan nan nan nan nan 0 nan nan nan nan nan nan nan 1 2 2 nan nan nan nan nan nan nan nan nan nan 3 8 8 7 7 7 6 5 6 6 10
nan nan nan nan nan nan nan nan nan nan nan nan nan nan nan nan nan nan nan nan nan nan nan nan nan nan nan nan nan nan nan nan nan nan nan nan nan nan nan nan nan nan nan nan nan nan nan nan nan nan nan nan nan nan nan nan nan nan nan nan nan nan 3 2 2 nan nan nan nan nan nan nan nan nan nan 0 3 3 7 7 7 6 5 4 4 6
nan nan nan nan nan nan nan nan nan nan nan nan nan nan nan nan nan nan nan nan nan nan nan nan nan nan nan nan nan nan nan nan nan nan nan nan nan nan nan nan nan nan nan nan nan nan nan nan nan nan nan nan nan nan nan nan nan nan nan nan nan 0 2 1 1 nan nan nan nan nan nan nan nan nan nan nan 1 1 3 5 5 6 5 4 4 5
nan nan nan nan nan nan nan nan nan nan nan nan nan nan nan nan nan nan nan nan nan nan nan nan nan nan nan nan nan nan nan nan nan nan nan nan nan nan nan nan nan nan nan nan nan nan nan nan nan nan nan nan nan nan nan nan nan nan nan nan nan 1 1 nan nan nan nan nan nan nan nan nan nan nan nan nan 0 0 1 3 3 4 4 5 5 5
nan nan nan nan nan nan nan nan nan nan nan nan nan nan nan nan nan nan nan nan nan nan nan nan nan nan nan nan nan nan nan nan nan nan nan nan nan nan nan nan nan nan nan nan nan nan nan nan nan nan nan nan nan nan nan nan nan nan nan nan nan 1 0 nan nan nan nan nan nan nan nan nan nan nan nan nan nan nan nan 1 1 2 3 5 5 6
nan nan nan nan nan nan nan nan nan nan nan nan nan nan nan nan nan nan nan nan nan nan nan nan nan nan nan nan nan nan nan nan nan nan nan nan nan nan nan nan nan nan nan nan nan nan nan nan nan nan nan nan nan nan nan nan nan nan nan 1 1 2 nan nan nan nan nan nan nan nan nan nan nan nan nan nan nan nan nan nan nan 0 2 4 4 7
nan nan nan nan nan nan nan nan nan nan nan nan nan nan nan nan nan nan nan nan nan nan nan nan nan nan nan nan nan nan nan nan nan nan nan nan nan nan nan nan nan nan nan nan nan nan nan nan nan nan nan nan nan nan nan nan nan nan nan 0 0 1 nan nan nan nan nan nan nan nan nan nan nan nan nan nan nan nan nan nan nan 0 1 3 3 6
nan nan nan nan nan nan nan nan nan nan nan nan nan nan nan nan nan nan nan nan nan nan nan nan nan nan nan nan nan nan nan nan nan nan nan nan nan nan nan nan nan nan nan nan nan nan nan nan nan nan nan nan nan nan nan nan nan nan nan nan nan nan nan nan nan nan nan nan nan nan nan nan nan nan nan nan nan nan nan nan nan nan 0 1 1 4
nan nan nan nan nan nan nan nan nan nan nan nan nan nan nan nan nan nan nan nan nan nan nan nan nan nan nan nan nan nan nan nan nan nan nan nan nan nan nan nan nan nan nan nan nan nan nan nan nan nan nan nan nan nan nan nan nan nan nan nan nan nan nan nan nan nan 0 1 0 0 nan nan nan nan nan nan nan nan nan nan nan nan nan 0 0 2
nan nan nan nan nan nan nan nan nan nan nan nan nan nan nan nan nan nan nan nan nan nan 2 2 2 nan nan nan nan nan nan nan nan nan nan nan nan nan nan nan nan nan nan nan nan nan nan nan nan nan nan nan nan nan nan nan nan nan nan nan nan nan nan nan nan nan 0 2 3 3 1 nan nan nan nan nan nan nan nan nan nan nan nan nan nan 0
nan nan nan nan nan nan nan nan nan nan nan nan nan nan nan nan nan nan nan nan nan 1 2 0 0 0 3 1 nan nan nan nan nan nan nan nan nan nan nan nan nan nan nan nan nan nan nan nan nan nan nan nan nan nan nan nan nan nan nan nan nan nan nan nan nan nan 0 2 4 4 3 0 nan nan nan nan nan nan nan nan nan nan nan nan nan nan
nan nan nan nan nan nan nan nan nan nan nan nan nan nan nan nan nan nan nan nan nan nan nan nan nan nan nan nan nan nan nan nan nan nan nan nan nan nan nan nan nan nan nan nan nan nan nan nan nan nan nan nan nan nan nan nan nan 0 nan nan nan nan nan nan nan nan nan 1 2 2 3 1 nan nan nan nan nan nan nan nan nan nan nan nan nan nan
nan nan nan nan nan nan nan nan nan nan nan nan nan nan nan nan nan nan nan nan nan nan nan nan nan nan nan nan nan nan nan nan nan nan nan nan nan nan nan nan nan nan nan nan nan nan nan nan nan nan nan nan nan nan nan nan nan nan 0 nan nan nan nan nan nan nan nan 0 1 1 3 2 0 0 nan nan nan nan nan nan nan 0 0 nan nan nan
nan nan nan nan nan nan nan nan 0 0 nan nan nan nan nan nan nan nan nan nan nan nan nan nan nan nan nan nan nan nan nan nan nan nan nan nan nan nan nan nan nan nan nan nan nan nan nan nan nan nan nan nan nan nan nan nan nan nan nan nan nan nan nan nan nan nan nan 0 1 1 1 2 0 0 nan nan nan nan nan nan nan 0 0 1 1 1
nan nan nan nan nan nan nan nan nan nan 0 0 nan nan nan nan nan nan nan nan nan nan nan nan nan nan nan nan nan nan nan nan nan nan nan nan nan nan nan nan nan nan nan nan nan nan nan nan nan nan nan nan nan nan nan nan nan nan nan 0 0 nan nan nan nan nan nan 0 0 0 1 1 1 1 nan nan nan nan nan nan nan 0 2 2 2 3
nan nan nan nan nan nan nan 0 0 0 1 2 4 4 nan nan nan nan nan nan nan nan nan nan nan nan nan nan nan nan nan nan nan nan nan nan 0 0 nan nan nan nan nan nan nan nan 0 nan nan nan nan nan nan nan nan nan nan nan nan 0 0 0 nan nan nan nan nan 0 0 0 0 0 1 1 0 nan nan nan nan nan nan 0 3 3 3 3
nan nan nan nan nan nan nan 1 2 2 2 3 4 4 nan nan nan nan nan nan nan nan nan nan nan nan nan nan nan nan nan nan nan nan nan nan nan nan nan nan nan nan nan nan nan nan nan nan nan nan nan nan nan nan nan nan nan nan nan nan nan nan nan nan nan nan nan 0 0 0 nan nan 0 0 0 nan nan nan nan nan nan 0 2 3 3 5
nan nan nan nan nan nan nan nan nan nan 1 2 4 4 1 nan nan nan nan nan nan nan nan nan nan nan nan nan nan nan nan nan nan nan nan nan nan nan nan nan nan 0 3 3 3 4 nan nan nan nan nan nan nan nan nan nan nan nan nan nan nan nan nan nan nan nan nan nan nan nan nan nan nan nan 0 0 nan nan nan nan nan nan nan 1 1 3
nan nan nan nan nan nan nan nan nan nan nan 1 2 2 nan nan nan nan nan nan nan nan nan nan nan nan nan nan nan nan nan nan nan nan nan nan nan nan nan 0 0 1 3 14 14 6 1 nan nan nan nan nan nan nan nan nan nan nan nan nan nan nan nan nan nan nan nan nan nan nan nan nan nan nan nan 0 0 0 nan nan nan nan nan 0 0 2
nan nan nan nan nan nan nan nan nan nan nan nan nan nan nan nan nan nan nan nan nan nan nan nan nan nan nan nan 0 0 nan nan nan nan nan nan 4 4 11 8 8 7 1 2 2 7 4 3 3 0 nan nan nan nan nan nan nan nan nan nan nan nan nan nan nan nan nan nan nan nan nan nan nan nan nan 0 1 1 0 0 0 0 nan nan nan 1
nan nan nan nan nan nan nan nan nan nan nan nan nan nan nan nan nan nan nan nan nan nan nan nan nan nan nan nan nan nan nan nan nan nan nan nan 6 6 2 nan nan nan nan nan nan 0 0 2 2 1 0 nan nan nan nan nan nan nan nan nan nan nan nan nan nan nan nan nan nan nan nan nan nan nan nan 0 0 0 1 1 1 1 3 0 0 2
nan nan nan nan nan nan nan nan nan nan nan nan nan nan nan nan nan nan nan nan nan nan nan nan nan nan nan nan nan nan nan nan nan nan nan nan 0 0 nan nan nan nan nan nan nan nan nan nan nan nan nan nan nan nan nan nan nan nan nan nan nan nan nan nan nan nan nan nan nan nan nan nan nan nan nan nan nan nan 1 2 2 3 4 3 3 3
nan nan nan nan nan nan nan nan nan nan nan nan nan nan nan nan nan nan nan nan nan nan nan nan nan nan nan nan nan nan nan nan nan nan nan nan nan nan nan nan nan nan nan nan nan nan nan nan nan nan nan nan nan nan nan nan nan nan nan nan nan nan nan nan nan nan nan nan nan nan nan nan nan nan nan nan nan nan 1 3 3 3 4 6 6 5
nan nan nan nan nan nan nan nan nan nan nan nan nan nan nan nan nan nan nan nan nan nan nan nan nan nan nan nan nan nan nan nan nan nan nan nan nan nan nan nan nan nan nan nan nan nan nan nan nan nan nan nan nan nan nan nan nan nan nan nan nan nan nan nan nan nan nan nan nan nan nan nan nan nan nan nan 0 0 2 3 3 4 4 4 4 5
nan nan nan nan nan nan nan nan nan nan nan nan nan nan nan nan nan nan nan nan nan nan nan nan nan nan nan nan nan nan nan nan nan nan nan nan nan nan nan nan nan nan nan nan nan nan nan nan nan nan nan 0 nan nan nan 1 1 2 nan nan nan nan nan nan nan nan nan nan nan nan nan nan nan nan nan nan 0 0 3 4 4 4 4 4 4 5
nan nan nan nan nan nan nan nan nan nan nan nan nan nan nan nan nan nan nan nan nan nan nan nan nan nan nan nan nan nan nan nan nan nan nan nan nan nan nan nan nan nan nan nan nan nan nan nan nan nan 1 1 5 5 6 4 4 1 nan nan nan nan nan nan nan nan nan nan nan nan nan nan nan nan nan nan nan nan nan nan nan 0 3 3 3 4
nan nan nan nan nan nan nan nan nan nan nan nan nan nan nan nan nan nan nan nan nan nan nan nan nan nan nan nan nan nan nan nan nan nan nan nan nan nan nan nan nan nan nan nan nan nan nan nan nan 1 2 2 2 2 2 1 1 1 0 0 0 nan nan nan nan nan nan nan nan nan nan nan nan nan nan nan nan nan nan nan nan 0 nan nan nan 2
nan nan nan nan nan nan nan nan nan nan nan nan nan nan nan nan nan nan nan nan nan nan nan nan nan nan nan nan nan nan nan nan nan nan nan nan nan nan nan nan nan nan nan nan nan nan nan nan nan 1 4 3 3 3 2 1 1 4 10 6 6 6 11 nan nan nan nan nan nan nan nan nan nan nan nan nan nan nan nan nan nan nan 0 nan nan 1
nan nan nan nan nan nan nan nan nan nan nan nan nan nan nan nan nan nan nan nan nan nan nan nan nan nan nan nan nan nan nan nan nan nan nan nan nan nan nan nan nan nan nan nan nan nan nan nan nan 1 1 2 6 6 6 6 6 16 29 16 16 15 10 1 1 nan nan nan nan nan nan nan nan nan nan nan nan nan nan nan nan nan 0 1 1 2
nan nan nan nan nan nan nan nan nan nan nan nan nan nan nan nan nan nan nan nan nan nan nan nan nan nan nan nan nan nan nan nan nan nan nan nan nan nan nan nan nan nan nan nan nan nan nan nan nan 0 1 2 3 3 3 6 6 17 24 15 15 8 1 nan nan nan nan nan nan nan nan nan nan nan nan nan nan nan 0 nan nan 3 3 1 1 3
nan nan nan nan nan nan nan nan nan nan nan nan nan nan nan nan 3 3 8 1 1 nan nan nan nan nan nan nan nan nan nan nan nan nan nan nan nan nan nan nan nan nan nan nan nan nan nan nan nan nan nan nan 1 1 1 5 5 9 12 14 14 9 3 nan nan nan nan nan nan nan nan nan nan nan nan nan nan nan nan 1 1 9 10 2 2 2
nan nan nan nan nan nan nan nan nan nan nan nan nan nan nan nan 0 0 1 nan nan nan nan nan nan nan nan nan nan nan nan nan nan nan nan nan nan nan nan nan nan nan nan nan nan nan nan nan nan nan nan nan nan nan 0 3 3 8 7 5 5 3 1 1 1 1 4 5 5 5 0 nan nan nan nan nan nan nan nan nan nan nan 3 1 1 1
nan nan nan nan nan nan nan nan nan nan nan nan nan nan nan nan nan nan nan nan nan nan nan nan nan nan 0 0 nan nan nan nan nan nan nan nan nan nan nan nan nan nan nan nan nan nan nan nan nan nan nan nan 0 0 0 2 2 3 2 1 1 0 0 2 2 2 2 2 nan nan nan nan nan nan nan 0 nan nan nan nan nan nan nan 0 0 0
nan nan nan nan nan nan nan nan nan nan nan nan nan nan nan nan nan nan nan nan nan nan 0 0 0 0 1 1 0 0 nan nan nan nan nan nan nan nan nan nan nan nan nan nan nan nan nan nan nan nan nan nan nan nan 1 0 0 nan nan nan nan nan nan nan nan nan 0 1 nan nan nan nan nan nan 1 1 0 0 nan nan nan nan nan nan nan nan
nan nan nan nan nan nan nan nan nan nan nan nan nan nan nan nan nan nan nan nan nan nan nan 1 1 2 3 2 1 1 nan nan nan nan nan nan nan nan nan nan nan nan nan nan nan nan nan nan nan 0 2 1 1 1 nan nan nan nan nan nan nan nan 0 0 0 nan nan 0 nan nan nan 0 1 1 2 1 1 1 nan nan nan nan nan nan nan nan
nan nan nan nan nan nan nan nan nan nan nan nan nan nan nan nan nan nan nan nan nan nan 2 2 2 4 4 3 2 2 2 1 2 2 0 nan nan nan nan nan nan nan nan nan nan nan nan nan nan nan nan 0 0 0 nan nan nan nan nan nan nan nan 0 1 1 nan nan nan 0 0 1 2 3 3 2 2 2 2 nan nan nan nan nan nan nan nan
nan nan nan nan nan nan nan nan nan nan nan nan nan nan nan nan nan nan nan nan nan 0 2 4 4 4 4 4 5 5 9 8 5 5 2 nan nan nan nan nan nan nan nan nan nan nan nan nan nan nan nan nan nan nan nan nan nan nan nan nan nan nan 1 0 0 nan nan nan nan nan 1 3 6 6 8 7 3 3 nan nan nan nan nan nan nan nan
nan nan nan nan nan nan nan nan nan nan nan nan nan nan nan nan nan nan nan 0 0 1 3 4 4 5 6 4 4 4 5 4 3 3 1 nan nan nan nan nan nan nan nan nan nan nan nan nan nan nan nan nan nan nan nan nan nan nan nan nan nan nan nan nan nan nan nan nan nan nan 6 6 10 10 6 5 5 5 0 nan nan nan nan nan nan 4
nan nan nan nan nan nan nan nan nan nan nan nan nan nan nan nan nan nan nan nan nan 0 1 2 2 3 5 4 4 4 5 2 1 1 nan nan nan nan nan nan nan nan nan 0 0 1 1 nan nan nan nan 3 nan nan nan nan nan nan nan nan nan nan nan nan nan nan nan 1 3 3 9 5 5 5 4 4 6 6 1 nan nan nan nan 1 1 nan